| time (UTC) | temp F | wind direction | speed MPH | gust MPH | rain 1hr in | rain 24hr in | rain mn in | humidity % | barometer mb |
| 20260901201039 | 79 | 115 | 9.0 | 16.0 | 0.00 | 0.00 | 0.00 | 36 | 932.2 |
| 20260901200539 | 79 | 115 | 8.0 | 14.0 | 0.00 | 0.00 | 0.00 | 37 | 932.2 |
| 20260901200052 | 78 | 109 | 10.0 | 15.0 | 0.00 | 0.00 | 0.00 | 36 | 932.3 |
| 20260901195537 | 78 | 105 | 8.0 | 15.0 | 0.00 | 0.00 | 0.00 | 37 | 932.3 |
| 20260901195036 | 79 | 108 | 10.0 | 15.0 | 0.00 | 0.00 | 0.00 | 36 | 932.4 |
| 20260901194547 | 79 | 128 | 9.0 | 14.0 | 0.00 | 0.00 | 0.00 | 36 | 932.5 |
| 20260901194035 | 79 | 131 | 9.0 | 15.0 | 0.00 | 0.00 | 0.00 | 36 | 932.5 |
| 20260901193535 | 78 | 129 | 9.0 | 15.0 | 0.00 | 0.00 | 0.00 | 37 | 932.6 |
| 20260901193034 | 79 | 111 | 10.0 | 13.0 | 0.00 | 0.00 | 0.00 | 37 | 932.7 |
| 20260901192532 | 79 | 109 | 8.0 | 12.0 | 0.00 | 0.00 | 0.00 | 38 | 932.6 |
| 20260901192032 | 79 | 98 | 10.0 | 14.0 | 0.00 | 0.00 | 0.00 | 37 | 932.7 |
| 20260901191532 | 79 | 94 | 9.0 | 16.0 | 0.00 | 0.00 | 0.00 | 37 | 932.8 |
| 20260901191032 | 78 | 117 | 8.0 | 16.0 | 0.00 | 0.00 | 0.00 | 38 | 932.9 |
| 20260901190530 | 78 | 142 | 10.0 | 15.0 | 0.00 | 0.00 | 0.00 | 38 | 933.0 |
| 20260901190034 | 78 | 128 | 10.0 | 15.0 | 0.00 | 0.00 | 0.00 | 39 | 933.1 |
| 20260901185529 | 78 | 109 | 10.0 | 15.0 | 0.00 | 0.00 | 0.00 | 38 | 933.1 |
| 20260901185034 | 77 | 132 | 10.0 | 15.0 | 0.00 | 0.00 | 0.00 | 39 | 933.2 |
| 20260901184530 | 78 | 106 | 9.0 | 13.0 | 0.00 | 0.00 | 0.00 | 39 | 933.2 |
| 20260901184028 | 78 | 121 | 10.0 | 13.0 | 0.00 | 0.00 | 0.00 | 39 | 933.3 |
| 20260901183527 | 78 | 111 | 8.0 | 15.0 | 0.00 | 0.00 | 0.00 | 39 | 933.3 |
| 20260901183038 | 78 | 147 | 8.0 | 15.0 | 0.00 | 0.00 | 0.00 | 39 | 933.5 |
| 20260901182526 | 78 | 130 | 8.0 | 15.0 | 0.00 | 0.00 | 0.00 | 39 | 933.4 |
| 20260901182126 | 77 | 140 | 9.0 | 14.0 | 0.00 | 0.00 | 0.00 | 40 | 933.5 |
| 20260901181527 | 77 | 140 | 8.0 | 14.0 | 0.00 | 0.00 | 0.00 | 40 | 933.5 |
| 20260901181025 | 77 | 143 | 8.0 | 13.0 | 0.00 | 0.00 | 0.00 | 39 | 933.6 |
| 20260901180524 | 77 | 153 | 9.0 | 14.0 | 0.00 | 0.00 | 0.00 | 39 | 933.7 |
| 20260901180025 | 77 | 136 | 9.0 | 14.0 | 0.00 | 0.00 | 0.00 | 40 | 933.7 |
| 20260901175526 | 76 | 147 | 9.0 | 13.0 | 0.00 | 0.00 | 0.00 | 40 | 933.8 |
| 20260901175022 | 76 | 129 | 8.0 | 12.0 | 0.00 | 0.00 | 0.00 | 41 | 933.9 |
| 20260901174521 | 77 | 129 | 9.0 | 14.0 | 0.00 | 0.00 | 0.00 | 40 | 933.9 |
| 20260901174021 | 76 | 138 | 10.0 | 14.0 | 0.00 | 0.00 | 0.00 | 41 | 934.0 |
| 20260901173521 | 76 | 113 | 10.0 | 16.0 | 0.00 | 0.00 | 0.00 | 40 | 934.1 |
| 20260901173020 | 76 | 136 | 10.0 | 16.0 | 0.00 | 0.00 | 0.00 | 40 | 934.2 |
| 20260901172523 | 76 | 121 | 10.0 | 14.0 | 0.00 | 0.00 | 0.00 | 40 | 934.0 |
| 20260901172120 | 74 | 128 | 8.0 | 14.0 | 0.00 | 0.00 | 0.00 | 42 | 934.1 |
| 20260901171523 | 74 | 106 | 7.0 | 14.0 | 0.00 | 0.00 | 0.00 | 43 | 934.1 |
| 20260901171022 | 74 | 108 | 9.0 | 14.0 | 0.00 | 0.00 | 0.00 | 43 | 934.1 |
| 20260901170521 | 74 | 99 | 10.0 | 14.0 | 0.00 | 0.00 | 0.00 | 42 | 934.0 |
| 20260901170019 | 74 | 117 | 10.0 | 14.0 | 0.00 | 0.00 | 0.00 | 42 | 934.0 |
| 20260901165518 | 74 | 117 | 10.0 | 15.0 | 0.00 | 0.00 | 0.00 | 42 | 933.9 |
| 20260901165019 | 74 | 128 | 11.0 | 15.0 | 0.00 | 0.00 | 0.00 | 42 | 934.0 |
| 20260901164518 | 74 | 125 | 9.0 | 13.0 | 0.00 | 0.00 | 0.00 | 42 | 933.9 |
| 20260901164019 | 74 | 126 | 9.0 | 13.0 | 0.00 | 0.00 | 0.00 | 42 | 933.8 |
| 20260901163518 | 74 | 117 | 9.0 | 14.0 | 0.00 | 0.00 | 0.00 | 43 | 933.9 |
| 20260901163018 | 74 | 121 | 10.0 | 14.0 | 0.00 | 0.00 | 0.00 | 43 | 934.0 |
| 20260901162522 | 74 | 121 | 10.0 | 14.0 | 0.00 | 0.00 | 0.00 | 43 | 934.0 |
| 20260901162116 | 74 | 112 | 8.0 | 11.0 | 0.00 | 0.00 | 0.00 | 42 | 934.0 |
| 20260901161517 | 74 | 113 | 7.0 | 16.0 | 0.00 | 0.00 | 0.00 | 44 | 934.0 |
| 20260901161015 | 74 | 103 | 8.0 | 16.0 | 0.00 | 0.00 | 0.00 | 44 | 933.9 |
| 20260901160514 | 73 | 126 | 8.0 | 12.0 | 0.00 | 0.00 | 0.00 | 45 | 933.9 |
| 20260901160014 | 73 | 120 | 8.0 | 12.0 | 0.00 | 0.00 | 0.00 | 45 | 933.9 |
| 20260901155512 | 73 | 360 | 7.0 | 13.0 | 0.00 | 0.00 | 0.00 | 46 | 934.0 |
| 20260901155015 | 72 | 360 | 7.0 | 11.0 | 0.00 | 0.00 | 0.00 | 47 | 933.9 |
| 20260901154511 | 72 | 360 | 8.0 | 11.0 | 0.00 | 0.00 | 0.00 | 48 | 933.9 |
| 20260901154010 | 71 | 360 | 7.0 | 11.0 | 0.00 | 0.00 | 0.00 | 49 | 934.0 |
| 20260901153510 | 71 | 360 | 6.0 | 11.0 | 0.00 | 0.00 | 0.00 | 49 | 934.1 |
| 20260901153011 | 71 | 360 | 6.0 | 9.0 | 0.00 | 0.00 | 0.00 | 50 | 934.1 |
| 20260901152511 | 70 | 127 | 7.0 | 11.0 | 0.00 | 0.00 | 0.00 | 50 | 934.2 |
| 20260901152105 | 70 | 360 | 6.0 | 11.0 | 0.00 | 0.00 | 0.00 | 54 | 934.2 |
| 20260901151507 | 68 | 360 | 6.0 | 9.0 | 0.00 | 0.00 | 0.00 | 54 | 934.3 |
| 20260901151004 | 67 | 116 | 6.0 | 8.0 | 0.00 | 0.00 | 0.00 | 55 | 934.3 |
| 20260901150505 | 66 | 360 | 5.0 | 7.0 | 0.00 | 0.00 | 0.00 | 58 | 934.2 |
| 20260901150001 | 64 | 360 | 4.0 | 7.0 | 0.00 | 0.00 | 0.00 | 60 | 934.4 |
| 20260901145604 | 63 | 146 | 4.0 | 6.0 | 0.00 | 0.00 | 0.00 | 61 | 934.3 |
| 20260901145058 | 62 | 188 | 3.0 | 6.0 | 0.00 | 0.00 | 0.00 | 64 | 934.3 |
| 20260901144558 | 60 | 224 | 0.0 | 0.0 | 0.00 | 0.00 | 0.00 | 68 | 934.2 |
| 20260901144056 | 59 | 224 | 0.0 | 0.0 | 0.00 | 0.00 | 0.00 | 70 | 934.2 |
| 20260901143555 | 58 | 224 | 0.0 | 0.0 | 0.00 | 0.00 | 0.00 | 72 | 934.2 |
| 20260901143053 | 57 | 224 | 0.0 | 0.0 | 0.00 | 0.00 | 0.00 | 72 | 934.3 |
| 20260901142555 | 56 | 224 | 0.0 | 0.0 | 0.00 | 0.00 | 0.00 | 73 | 934.2 |
| 20260901142055 | 55 | 224 | 0.0 | 0.0 | 0.00 | 0.00 | 0.00 | 75 | 934.2 |
| 20260901141050 | 54 | 224 | 0.0 | 0.0 | 0.00 | 0.00 | 0.00 | 76 | 934.2 |
| 20260901140548 | 53 | 224 | 0.0 | 0.0 | 0.00 | 0.00 | 0.00 | 77 | 934.3 |
| 20260901140050 | 52 | 360 | 0.0 | 0.0 | 0.00 | 0.00 | 0.00 | 78 | 934.3 |
| 20260901135549 | 51 | 360 | 0.0 | 0.0 | 0.00 | 0.00 | 0.00 | 78 | 934.3 |
| 20260901135046 | 50 | 360 | 0.0 | 0.0 | 0.00 | 0.00 | 0.00 | 79 | 934.3 |
| 20260901134545 | 50 | 360 | 0.0 | 0.0 | 0.00 | 0.00 | 0.00 | 79 | 934.3 |
| 20260901134045 | 49 | 360 | 0.0 | 0.0 | 0.00 | 0.00 | 0.00 | 80 | 934.4 |
| 20260901133544 | 49 | 360 | 0.0 | 0.0 | 0.00 | 0.00 | 0.00 | 80 | 934.4 |
| 20260901133046 | 48 | 360 | 0.0 | 0.0 | 0.00 | 0.00 | 0.00 | 81 | 934.4 |
| 20260901132547 | 48 | 360 | 0.0 | 0.0 | 0.00 | 0.00 | 0.00 | 82 | 934.4 |
| 20260901132045 | 47 | 360 | 0.0 | 0.0 | 0.00 | 0.00 | 0.00 | 83 | 934.4 |
| 20260901131043 | 46 | 360 | 0.0 | 0.0 | 0.00 | 0.00 | 0.00 | 84 | 934.6 |
| 20260901130544 | 45 | 360 | 0.0 | 0.0 | 0.00 | 0.00 | 0.00 | 85 | 934.5 |
| 20260901130042 | 44 | 360 | 0.0 | 0.0 | 0.00 | 0.00 | 0.00 | 85 | 934.5 |
| 20260901125543 | 43 | 360 | 0.0 | 0.0 | 0.00 | 0.00 | 0.00 | 85 | 934.4 |
| 20260901125044 | 42 | 223 | 0.0 | 0.0 | 0.00 | 0.00 | 0.00 | 85 | 934.4 |
| 20260901124551 | 42 | 360 | 0.0 | 0.0 | 0.00 | 0.00 | 0.00 | 84 | 934.4 |
| 20260901124041 | 42 | 360 | 0.0 | 0.0 | 0.00 | 0.00 | 0.00 | 83 | 934.3 |
| 20260901123545 | 42 | 360 | 0.0 | 0.0 | 0.00 | 0.00 | 0.00 | 82 | 934.3 |
| 20260901123040 | 42 | 360 | 0.0 | 0.0 | 0.00 | 0.00 | 0.00 | 82 | 934.3 |
| 20260901122539 | 43 | 360 | 0.0 | 0.0 | 0.00 | 0.00 | 0.00 | 80 | 934.3 |
| 20260901122141 | 44 | 360 | 0.0 | 0.0 | 0.00 | 0.00 | 0.00 | 79 | 934.2 |
| 20260901121039 | 45 | 360 | 0.0 | 0.0 | 0.00 | 0.00 | 0.00 | 83 | 934.3 |
| 20260901120539 | 44 | 360 | 0.0 | 0.0 | 0.00 | 0.00 | 0.00 | 83 | 934.3 |
| 20260901120038 | 44 | 360 | 0.0 | 0.0 | 0.00 | 0.00 | 0.00 | 83 | 934.3 |
| 20260901115539 | 43 | 360 | 0.0 | 0.0 | 0.00 | 0.00 | 0.00 | 83 | 934.3 |
| 20260901115038 | 43 | 360 | 0.0 | 0.0 | 0.00 | 0.00 | 0.00 | 83 | 934.2 |
| 20260901114539 | 43 | 360 | 0.0 | 0.0 | 0.00 | 0.00 | 0.00 | 83 | 934.2 |
| 20260901114038 | 43 | 360 | 0.0 | 0.0 | 0.00 | 0.00 | 0.00 | 83 | 934.3 |
| 20260901113538 | 43 | 360 | 0.0 | 0.0 | 0.00 | 0.00 | 0.00 | 82 | 934.3 |
| 20260901113041 | 43 | 360 | 0.0 | 0.0 | 0.00 | 0.00 | 0.00 | 81 | 934.2 |
| 20260901112537 | 43 | 360 | 0.0 | 0.0 | 0.00 | 0.00 | 0.00 | 82 | 934.2 |
| 20260901112037 | 44 | 360 | 0.0 | 0.0 | 0.00 | 0.00 | 0.00 | 82 | 934.2 |
| 20260901111038 | 44 | 360 | 0.0 | 0.0 | 0.00 | 0.00 | 0.00 | 81 | 934.1 |
| 20260901110537 | 44 | 360 | 0.0 | 0.0 | 0.00 | 0.00 | 0.00 | 82 | 934.2 |
| 20260901110044 | 44 | 360 | 0.0 | 0.0 | 0.00 | 0.00 | 0.00 | 82 | 934.2 |
| 20260901105538 | 44 | 360 | 0.0 | 0.0 | 0.00 | 0.00 | 0.00 | 83 | 934.2 |
| 20260901105037 | 43 | 360 | 0.0 | 0.0 | 0.00 | 0.00 | 0.00 | 83 | 934.2 |
| 20260901104537 | 43 | 360 | 0.0 | 0.0 | 0.00 | 0.00 | 0.00 | 82 | 934.2 |
| 20260901104037 | 43 | 360 | 0.0 | 0.0 | 0.00 | 0.00 | 0.00 | 82 | 934.2 |
| 20260901103535 | 43 | 360 | 0.0 | 0.0 | 0.00 | 0.00 | 0.00 | 81 | 934.2 |
| 20260901103035 | 43 | 360 | 0.0 | 0.0 | 0.00 | 0.00 | 0.00 | 80 | 934.2 |
| 20260901102534 | 44 | 360 | 0.0 | 0.0 | 0.00 | 0.00 | 0.00 | 80 | 934.0 |
| 20260901102133 | 44 | 360 | 0.0 | 0.0 | 0.00 | 0.00 | 0.00 | 79 | 934.1 |
| 20260901101030 | 45 | 360 | 0.0 | 0.0 | 0.00 | 0.00 | 0.00 | 79 | 934.1 |
| 20260901100530 | 45 | 360 | 0.0 | 0.0 | 0.00 | 0.00 | 0.00 | 79 | 934.0 |
| 20260901100030 | 45 | 360 | 0.0 | 0.0 | 0.00 | 0.00 | 0.00 | 79 | 934.0 |
| 20260901095531 | 45 | 360 | 0.0 | 0.0 | 0.00 | 0.00 | 0.00 | 80 | 934.1 |
| 20260901095031 | 45 | 360 | 0.0 | 0.0 | 0.00 | 0.00 | 0.00 | 80 | 934.0 |
| 20260901094530 | 45 | 360 | 0.0 | 0.0 | 0.00 | 0.00 | 0.00 | 79 | 934.0 |
| 20260901094031 | 45 | 360 | 0.0 | 0.0 | 0.00 | 0.00 | 0.00 | 79 | 933.9 |
| 20260901093529 | 46 | 360 | 0.0 | 0.0 | 0.00 | 0.00 | 0.00 | 79 | 933.9 |
| 20260901093029 | 46 | 360 | 0.0 | 0.0 | 0.00 | 0.00 | 0.00 | 78 | 934.0 |
| 20260901092529 | 46 | 360 | 0.0 | 0.0 | 0.00 | 0.00 | 0.00 | 79 | 933.9 |
| 20260901092131 | 46 | 360 | 0.0 | 0.0 | 0.00 | 0.00 | 0.00 | 80 | 934.0 |
| 20260901091029 | 45 | 360 | 0.0 | 0.0 | 0.00 | 0.00 | 0.00 | 79 | 934.0 |
| 20260901090529 | 45 | 360 | 0.0 | 0.0 | 0.00 | 0.00 | 0.00 | 79 | 934.1 |
| 20260901090028 | 45 | 360 | 0.0 | 0.0 | 0.00 | 0.00 | 0.00 | 79 | 934.0 |
| 20260901085529 | 46 | 360 | 0.0 | 0.0 | 0.00 | 0.00 | 0.00 | 79 | 934.0 |
| 20260901085029 | 46 | 360 | 0.0 | 0.0 | 0.00 | 0.00 | 0.00 | 78 | 934.1 |
| 20260901084532 | 46 | 360 | 0.0 | 0.0 | 0.00 | 0.00 | 0.00 | 78 | 934.1 |
| 20260901084028 | 47 | 360 | 0.0 | 0.0 | 0.00 | 0.00 | 0.00 | 77 | 934.1 |
| 20260901083531 | 47 | 360 | 0.0 | 0.0 | 0.00 | 0.00 | 0.00 | 79 | 934.1 |
| 20260901083029 | 47 | 360 | 0.0 | 0.0 | 0.00 | 0.00 | 0.00 | 79 | 934.2 |
| 20260901082528 | 47 | 360 | 0.0 | 0.0 | 0.00 | 0.00 | 0.00 | 79 | 934.2 |
| 20260901082028 | 46 | 360 | 0.0 | 0.0 | 0.00 | 0.00 | 0.00 | 80 | 934.1 |
| 20260901081029 | 45 | 360 | 0.0 | 0.0 | 0.00 | 0.00 | 0.00 | 78 | 934.1 |
| 20260901080528 | 45 | 360 | 0.0 | 0.0 | 0.00 | 0.00 | 0.00 | 79 | 934.1 |
| 20260901080027 | 45 | 360 | 0.0 | 0.0 | 0.00 | 0.00 | 0.00 | 78 | 934.1 |
| 20260901075526 | 45 | 360 | 0.0 | 0.0 | 0.00 | 0.00 | 0.00 | 77 | 934.1 |
| 20260901075023 | 46 | 360 | 0.0 | 0.0 | 0.00 | 0.00 | 0.00 | 75 | 934.0 |
| 20260901074524 | 47 | 360 | 0.0 | 0.0 | 0.00 | 0.00 | 0.00 | 75 | 933.9 |
| 20260901074023 | 48 | 360 | 0.0 | 0.0 | 0.00 | 0.00 | 0.00 | 74 | 934.0 |
| 20260901073523 | 48 | 360 | 0.0 | 0.0 | 0.00 | 0.00 | 0.00 | 74 | 934.1 |
| 20260901073025 | 49 | 360 | 0.0 | 0.0 | 0.00 | 0.00 | 0.00 | 76 | 934.2 |
| 20260901072524 | 49 | 360 | 0.0 | 0.0 | 0.00 | 0.00 | 0.00 | 76 | 934.2 |
| 20260901072022 | 48 | 360 | 0.0 | 0.0 | 0.00 | 0.00 | 0.00 | 76 | 934.1 |
| 20260901071024 | 47 | 360 | 0.0 | 0.0 | 0.00 | 0.00 | 0.00 | 77 | 934.0 |
| 20260901070522 | 46 | 360 | 0.0 | 0.0 | 0.00 | 0.00 | 0.00 | 77 | 933.9 |
| 20260901070027 | 47 | 360 | 0.0 | 0.0 | 0.00 | 0.00 | 0.00 | 74 | 934.0 |
| 20260901065520 | 48 | 360 | 0.0 | 0.0 | 0.00 | 0.00 | 0.00 | 72 | 934.1 |
| 20260901065019 | 49 | 360 | 0.0 | 0.0 | 0.00 | 0.00 | 0.00 | 70 | 934.0 |
| 20260901064518 | 50 | 360 | 0.0 | 0.0 | 0.00 | 0.00 | 0.00 | 69 | 933.9 |
| 20260901064018 | 51 | 360 | 0.0 | 1.0 | 0.00 | 0.00 | 0.00 | 71 | 933.9 |
| 20260901063516 | 51 | 360 | 0.0 | 4.0 | 0.00 | 0.00 | 0.00 | 71 | 933.9 |
| 20260901063016 | 51 | 360 | 1.0 | 5.0 | 0.00 | 0.00 | 0.00 | 71 | 933.8 |
| 20260901062515 | 51 | 360 | 4.0 | 5.0 | 0.00 | 0.00 | 0.00 | 73 | 933.9 |
| 20260901062015 | 49 | 360 | 0.0 | 0.0 | 0.00 | 0.00 | 0.00 | 73 | 933.8 |
| 20260901061015 | 50 | 360 | 0.0 | 0.0 | 0.00 | 0.00 | 0.00 | 72 | 933.5 |
| 20260901060515 | 50 | 360 | 0.0 | 0.0 | 0.00 | 0.00 | 0.00 | 71 | 933.5 |
| 20260901060015 | 50 | 360 | 0.0 | 0.0 | 0.00 | 0.00 | 0.00 | 72 | 933.6 |
| 20260901055514 | 50 | 360 | 0.0 | 0.0 | 0.00 | 0.00 | 0.00 | 71 | 933.7 |
| 20260901055015 | 50 | 360 | 0.0 | 1.0 | 0.00 | 0.00 | 0.00 | 71 | 933.7 |
| 20260901054514 | 50 | 360 | 0.0 | 2.0 | 0.00 | 0.00 | 0.00 | 71 | 933.7 |
| 20260901054014 | 50 | 360 | 0.0 | 2.0 | 0.00 | 0.00 | 0.00 | 70 | 933.6 |
| 20260901053513 | 51 | 360 | 0.0 | 1.0 | 0.00 | 0.00 | 0.00 | 68 | 933.5 |
| 20260901053014 | 52 | 360 | 0.0 | 4.0 | 0.00 | 0.00 | 0.00 | 67 | 933.5 |
| 20260901052511 | 52 | 360 | 0.0 | 4.0 | 0.00 | 0.00 | 0.00 | 67 | 933.5 |
| 20260901052011 | 53 | 360 | 2.0 | 4.0 | 0.00 | 0.00 | 0.00 | 65 | 933.4 |
| 20260901051010 | 56 | 360 | 0.0 | 4.0 | 0.00 | 0.00 | 0.00 | 64 | 933.2 |
| 20260901050509 | 54 | 360 | 0.0 | 3.0 | 0.00 | 0.00 | 0.00 | 65 | 933.3 |
| 20260901050008 | 55 | 360 | 0.0 | 0.0 | 0.00 | 0.00 | 0.00 | 65 | 933.2 |
| 20260901045508 | 55 | 360 | 0.0 | 0.0 | 0.00 | 0.00 | 0.00 | 64 | 933.2 |
| 20260901045008 | 55 | 360 | 0.0 | 0.0 | 0.00 | 0.00 | 0.00 | 64 | 933.0 |
| 20260901044509 | 55 | 360 | 0.0 | 1.0 | 0.00 | 0.00 | 0.00 | 63 | 933.1 |
| 20260901044009 | 56 | 360 | 0.0 | 5.0 | 0.00 | 0.00 | 0.00 | 63 | 933.0 |
| 20260901043508 | 55 | 360 | 2.0 | 5.0 | 0.00 | 0.00 | 0.00 | 65 | 933.1 |
| 20260901043009 | 54 | 360 | 1.0 | 5.0 | 0.00 | 0.00 | 0.00 | 66 | 933.1 |
| 20260901042508 | 54 | 360 | 3.0 | 5.0 | 0.00 | 0.00 | 0.00 | 64 | 933.1 |
| 20260901042008 | 59 | 360 | 0.0 | 2.0 | 0.00 | 0.00 | 0.00 | 60 | 933.1 |
| 20260901041013 | 60 | 360 | 0.0 | 0.0 | 0.00 | 0.00 | 0.00 | 56 | 933.3 |
| 20260901040509 | 60 | 360 | 0.0 | 4.0 | 0.00 | 0.00 | 0.00 | 57 | 933.4 |
| 20260901040009 | 60 | 360 | 0.0 | 4.0 | 0.00 | 0.00 | 0.00 | 58 | 933.3 |
| 20260901035508 | 59 | 360 | 2.0 | 4.0 | 0.00 | 0.00 | 0.00 | 59 | 933.3 |
| 20260901035009 | 58 | 360 | 0.0 | 2.0 | 0.00 | 0.00 | 0.00 | 60 | 933.3 |
| 20260901034511 | 57 | 360 | 0.0 | 0.0 | 0.00 | 0.00 | 0.00 | 62 | 933.4 |
| 20260901034007 | 57 | 360 | 0.0 | 1.0 | 0.00 | 0.00 | 0.00 | 62 | 933.3 |
| 20260901033506 | 56 | 360 | 0.0 | 2.0 | 0.00 | 0.00 | 0.00 | 63 | 933.2 |
| 20260901033006 | 56 | 360 | 0.0 | 5.0 | 0.00 | 0.00 | 0.00 | 62 | 933.2 |
| 20260901032507 | 57 | 360 | 0.0 | 6.0 | 0.00 | 0.00 | 0.00 | 61 | 933.2 |
| 20260901032006 | 57 | 360 | 4.0 | 6.0 | 0.00 | 0.00 | 0.00 | 61 | 933.2 |
| 20260901031007 | 57 | 360 | 3.0 | 6.0 | 0.00 | 0.00 | 0.00 | 61 | 933.1 |
| 20260901030507 | 57 | 360 | 4.0 | 5.0 | 0.00 | 0.00 | 0.00 | 60 | 933.0 |
| 20260901030007 | 58 | 360 | 4.0 | 7.0 | 0.00 | 0.00 | 0.00 | 59 | 933.0 |
| 20260901025504 | 58 | 360 | 5.0 | 8.0 | 0.00 | 0.00 | 0.00 | 59 | 932.9 |
| 20260901025003 | 59 | 360 | 6.0 | 7.0 | 0.00 | 0.00 | 0.00 | 57 | 932.8 |
| 20260901024503 | 60 | 360 | 5.0 | 6.0 | 0.00 | 0.00 | 0.00 | 56 | 932.8 |
| 20260901024002 | 60 | 360 | 4.0 | 6.0 | 0.00 | 0.00 | 0.00 | 56 | 932.7 |
| 20260901023501 | 61 | 360 | 4.0 | 6.0 | 0.00 | 0.00 | 0.00 | 55 | 932.7 |
| 20260901023000 | 62 | 360 | 4.0 | 6.0 | 0.00 | 0.00 | 0.00 | 53 | 932.6 |
| 20260901022600 | 62 | 360 | 4.0 | 6.0 | 0.00 | 0.00 | 0.00 | 53 | 932.6 |
| 20260901022059 | 62 | 360 | 5.0 | 7.0 | 0.00 | 0.00 | 0.00 | 53 | 932.4 |
| 20260901021100 | 64 | 360 | 6.0 | 7.0 | 0.00 | 0.00 | 0.00 | 51 | 932.4 |
| 20260901020559 | 64 | 360 | 5.0 | 7.0 | 0.00 | 0.00 | 0.00 | 50 | 932.3 |
| 20260901020059 | 65 | 360 | 5.0 | 7.0 | 0.00 | 0.00 | 0.00 | 49 | 932.3 |
| 20260901015558 | 66 | 360 | 5.0 | 7.0 | 0.00 | 0.00 | 0.00 | 47 | 932.2 |
| 20260901015057 | 68 | 261 | 5.0 | 9.0 | 0.00 | 0.00 | 0.00 | 46 | 932.1 |
| 20260901014602 | 69 | 360 | 5.0 | 9.0 | 0.00 | 0.00 | 0.00 | 44 | 932.0 |
| 20260901014056 | 70 | 360 | 6.0 | 13.0 | 0.00 | 0.00 | 0.00 | 43 | 932.0 |
| 20260901013556 | 72 | 287 | 7.0 | 13.0 | 0.00 | 0.00 | 0.00 | 41 | 931.9 |
| 20260901013054 | 72 | 360 | 8.0 | 13.0 | 0.00 | 0.00 | 0.00 | 41 | 931.9 |
| 20260901012554 | 73 | 360 | 9.0 | 14.0 | 0.00 | 0.00 | 0.00 | 40 | 931.7 |
| 20260901012053 | 73 | 290 | 10.0 | 14.0 | 0.00 | 0.00 | 0.00 | 40 | 931.6 |
| 20260901011053 | 74 | 300 | 12.0 | 19.0 | 0.00 | 0.00 | 0.00 | 39 | 931.5 |
| 20260901010556 | 74 | 318 | 13.0 | 19.0 | 0.00 | 0.00 | 0.00 | 39 | 931.4 |
| 20260901010053 | 74 | 302 | 11.0 | 19.0 | 0.00 | 0.00 | 0.00 | 38 | 931.5 |
| 20260901005552 | 75 | 285 | 12.0 | 21.0 | 0.00 | 0.00 | 0.00 | 39 | 931.4 |
| 20260901005050 | 75 | 271 | 11.0 | 18.0 | 0.00 | 0.00 | 0.00 | 39 | 931.4 |
| 20260901004551 | 75 | 300 | 12.0 | 20.0 | 0.00 | 0.00 | 0.00 | 38 | 931.4 |
| 20260901004050 | 76 | 271 | 14.0 | 20.0 | 0.00 | 0.00 | 0.00 | 38 | 931.4 |
| 20260901003552 | 76 | 299 | 11.0 | 21.0 | 0.00 | 0.00 | 0.00 | 37 | 931.4 |
| 20260901003056 | 76 | 302 | 16.0 | 26.0 | 0.00 | 0.00 | 0.00 | 37 | 931.4 |
| 20260901002550 | 76 | 298 | 19.0 | 26.0 | 0.00 | 0.00 | 0.00 | 37 | 931.3 |
| 20260901002049 | 76 | 324 | 16.0 | 23.0 | 0.00 | 0.00 | 0.00 | 37 | 931.3 |
| 20260901001049 | 76 | 294 | 17.0 | 26.0 | 0.00 | 0.00 | 0.00 | 38 | 931.3 |
| 20260901000550 | 77 | 270 | 19.0 | 26.0 | 0.00 | 0.00 | 0.00 | 37 | 931.1 |
| 20260901000048 | 77 | 300 | 13.0 | 26.0 | 0.00 | 0.00 | 0.00 | 38 | 931.1 |
| 20260831235549 | 77 | 309 | 17.0 | 26.0 | 0.00 | 0.00 | 0.00 | 38 | 931.2 |
| 20260831235048 | 77 | 259 | 15.0 | 23.0 | 0.00 | 0.00 | 0.00 | 37 | 931.1 |
| 20260831234549 | 77 | 298 | 13.0 | 24.0 | 0.00 | 0.00 | 0.00 | 37 | 931.2 |
| 20260831234048 | 77 | 283 | 18.0 | 26.0 | 0.00 | 0.00 | 0.00 | 37 | 931.2 |
| 20260831233550 | 78 | 283 | 20.0 | 26.0 | 0.00 | 0.00 | 0.00 | 37 | 931.1 |
| 20260831233048 | 78 | 273 | 15.0 | 25.0 | 0.00 | 0.00 | 0.00 | 37 | 931.1 |
| 20260831232546 | 78 | 292 | 18.0 | 27.0 | 0.00 | 0.00 | 0.00 | 36 | 931.1 |
| 20260831232046 | 78 | 279 | 17.0 | 24.0 | 0.00 | 0.00 | 0.00 | 36 | 930.9 |
| 20260831231045 | 78 | 277 | 18.0 | 25.0 | 0.00 | 0.00 | 0.00 | 37 | 931.0 |
| 20260831230544 | 78 | 302 | 20.0 | 25.0 | 0.00 | 0.00 | 0.00 | 36 | 931.0 |
| 20260831230044 | 78 | 275 | 15.0 | 29.0 | 0.00 | 0.00 | 0.00 | 38 | 931.1 |
| 20260831225547 | 78 | 271 | 18.0 | 29.0 | 0.00 | 0.00 | 0.00 | 38 | 931.0 |
| 20260831225045 | 78 | 289 | 16.0 | 23.0 | 0.00 | 0.00 | 0.00 | 38 | 931.0 |
| 20260831224543 | 77 | 292 | 15.0 | 27.0 | 0.00 | 0.00 | 0.00 | 38 | 931.1 |
| 20260831224042 | 78 | 265 | 20.0 | 27.0 | 0.00 | 0.00 | 0.00 | 36 | 931.0 |
| 20260831223542 | 78 | 278 | 18.0 | 26.0 | 0.00 | 0.00 | 0.00 | 37 | 931.0 |
| 20260831223043 | 78 | 270 | 17.0 | 24.0 | 0.00 | 0.00 | 0.00 | 36 | 931.0 |
| 20260831222542 | 78 | 293 | 15.0 | 32.0 | 0.00 | 0.00 | 0.00 | 36 | 930.9 |
| 20260831222042 | 78 | 296 | 19.0 | 32.0 | 0.00 | 0.00 | 0.00 | 37 | 930.9 |
| 20260831221043 | 79 | 275 | 18.0 | 24.0 | 0.00 | 0.00 | 0.00 | 36 | 931.0 |
| 20260831220543 | 79 | 296 | 15.0 | 28.0 | 0.00 | 0.00 | 0.00 | 38 | 931.0 |
| 20260831220052 | 78 | 284 | 21.0 | 31.0 | 0.00 | 0.00 | 0.00 | 37 | 930.9 |
| 20260831215544 | 78 | 288 | 20.0 | 31.0 | 0.00 | 0.00 | 0.00 | 37 | 930.7 |
| 20260831215042 | 79 | 293 | 19.0 | 30.0 | 0.00 | 0.00 | 0.00 | 37 | 930.8 |
| 20260831214544 | 78 | 268 | 21.0 | 30.0 | 0.00 | 0.00 | 0.00 | 37 | 930.8 |
| 20260831214042 | 78 | 274 | 20.0 | 29.0 | 0.00 | 0.00 | 0.00 | 37 | 930.7 |
| 20260831213542 | 78 | 263 | 19.0 | 29.0 | 0.00 | 0.00 | 0.00 | 37 | 930.8 |
| 20260831213044 | 78 | 269 | 21.0 | 29.0 | 0.00 | 0.00 | 0.00 | 37 | 930.8 |
| 20260831212545 | 78 | 275 | 22.0 | 32.0 | 0.00 | 0.00 | 0.00 | 37 | 930.7 |
| 20260831212040 | 79 | 262 | 20.0 | 32.0 | 0.00 | 0.00 | 0.00 | 37 | 930.8 |
| 20260831211038 | 79 | 306 | 20.0 | 30.0 | 0.00 | 0.00 | 0.00 | 38 | 930.9 |
| 20260831210541 | 78 | 288 | 19.0 | 32.0 | 0.00 | 0.00 | 0.00 | 39 | 930.8 |
| 20260831210039 | 79 | 279 | 22.0 | 32.0 | 0.00 | 0.00 | 0.00 | 37 | 930.9 |
| 20260831205537 | 78 | 290 | 23.0 | 30.0 | 0.00 | 0.00 | 0.00 | 38 | 930.8 |
| 20260831205037 | 78 | 244 | 21.0 | 35.0 | 0.00 | 0.00 | 0.00 | 37 | 930.6 |
| 20260831204549 | 78 | 303 | 23.0 | 35.0 | 0.00 | 0.00 | 0.00 | 37 | 930.7 |
| 20260831204036 | 78 | 269 | 23.0 | 31.0 | 0.00 | 0.00 | 0.00 | 36 | 930.6 |
| 20260831203536 | 78 | 317 | 22.0 | 31.0 | 0.00 | 0.00 | 0.00 | 36 | 930.6 |
| 20260831203054 | 78 | 268 | 18.0 | 36.0 | 0.00 | 0.00 | 0.00 | 37 | 930.5 |
| 20260831202535 | 78 | 268 | 23.0 | 36.0 | 0.00 | 0.00 | 0.00 | 37 | 930.4 |
| 20260831202036 | 79 | 274 | 22.0 | 35.0 | 0.00 | 0.00 | 0.00 | 36 | 930.4 |